Date,TemperatureHighF,TemperatureAvgF,TemperatureLowF,DewpointHighF,DewpointAvgF,DewpointLowF,HumidityHigh,HumidityAvg,HumidityLow,PressureMaxIn,PressureMinIn,WindSpeedMaxMPH,WindSpeedAvgMPH,GustSpeedMaxMPH,PrecipitationSumIn
2013-1-1,42,33,27,-100,-100,-100,0,0,100,0.00,40.00,0,-999,0,0.00
2013-1-2,35,24,18,-100,-100,-100,0,0,100,0.00,40.00,0,-999,0,0.00
2013-1-3,35,26,18,-100,-100,-100,0,0,100,0.00,40.00,0,-999,0,0.00
2013-1-4,32,29,27,-100,-100,-100,0,0,100,0.00,40.00,0,-999,0,0.00
2013-1-5,39,32,24,-100,-100,-100,0,0,100,0.00,40.00,0,-999,0,0.00
2013-1-6,37,35,32,-100,-100,-100,0,0,100,0.00,40.00,0,-999,0,0.00
2013-1-7,42,33,27,-100,-100,-100,0,0,100,0.00,40.00,0,-999,0,0.00
2013-1-8,43,35,29,-100,-100,-100,0,0,100,0.00,40.00,0,-999,0,0.00
2013-1-9,51,41,34,-100,-100,-100,0,0,100,0.00,40.00,0,-999,0,0.00
2013-1-10,41,37,33,-100,-100,-100,0,0,100,0.00,40.00,0,-999,0,0.00
2013-1-11,56,46,38,-100,-100,-100,0,0,100,0.00,40.00,0,-999,0,0.00
2013-1-12,64,51,46,-100,-100,-100,0,0,100,0.00,40.00,0,-999,0,0.00
2013-1-13,185,39,30,-100,-100,-100,0,0,100,0.00,40.00,0,-999,0,0.00
2013-1-14,35,31,27,-100,-100,-100,0,0,100,0.00,40.00,0,-999,0,0.00
2013-1-15,39,32,29,-100,-100,-100,0,0,100,0.00,40.00,0,-999,0,0.00
2013-1-16,46,35,30,-100,-100,-100,0,0,100,0.00,40.00,0,-999,0,0.00
2013-1-17,50,36,28,-100,-100,-100,0,0,100,0.00,40.00,0,-999,0,0.00
2013-1-18,42,33,26,-100,-100,-100,0,0,100,0.00,40.00,0,-999,0,0.00
2013-1-19,54,42,36,-100,-100,-100,0,0,100,0.00,40.00,0,-999,0,0.00
2013-1-20,41,31,27,-100,-100,-100,0,0,100,0.00,40.00,0,-999,0,0.00
2013-1-21,30,23,15,-100,-100,-100,0,0,100,0.00,40.00,0,-999,0,0.00
2013-1-22,28,19,13,-100,-100,-100,0,0,100,0.00,40.00,0,-999,0,0.00
2013-1-23,27,23,19,-100,-100,-100,0,0,100,0.00,40.00,0,-999,0,0.00
2013-1-24,37,26,19,-100,-100,-100,0,0,100,0.00,40.00,0,-999,0,0.00
2013-1-25,30,26,23,-100,-100,-100,0,0,100,0.00,40.00,0,-999,0,0.00
2013-1-26,42,30,28,-100,-100,-100,0,0,100,0.00,40.00,0,-999,0,0.00
2013-1-27,35,30,25,-100,-100,-100,0,0,100,0.00,40.00,0,-999,0,0.00
2013-1-28,48,30,34,-100,-100,-100,0,0,100,0.00,40.00,0,-999,0,0.00
2013-1-29,185,16,44,-100,-100,-100,0,0,100,0.00,40.00,0,-999,0,0.00
2013-1-30,61,18,48,-100,-100,-100,0,0,100,0.00,40.00,0,-999,0,0.00
2013-2-1,31,21,15,-100,-100,-100,0,0,100,0.00,40.00,0,-999,0,0.00
2013-2-2,31,26,19,-100,-100,-100,0,0,100,0.00,40.00,0,-999,0,0.00
2013-2-3,34,27,21,-100,-100,-100,0,0,100,0.00,40.00,0,-999,0,0.00
2013-2-4,33,29,20,-100,-100,-100,0,0,100,0.00,40.00,0,-999,0,0.00
2013-2-5,36,30,24,-100,-100,-100,0,0,100,0.00,40.00,0,-999,0,0.00
2013-2-6,46,18,28,-100,-100,-100,0,0,100,0.00,40.00,0,-999,0,0.00
2013-2-7,54,38,30,-100,-100,-100,0,0,100,0.00,40.00,0,-999,0,0.00
2013-2-8,46,34,29,-100,-100,-100,0,0,100,0.00,40.00,0,-999,0,0.00
2013-2-9,51,33,27,-100,-100,-100,0,0,100,0.00,40.00,0,-999,0,0.00
2013-2-10,47,37,31,-100,-100,-100,0,0,100,0.00,40.00,0,-999,0,0.00
2013-2-11,47,38,33,-100,-100,-100,0,0,100,0.00,40.00,0,-999,0,0.00
2013-2-12,54,36,32,-100,-100,-100,0,0,100,0.00,40.00,0,-999,0,0.00
2013-2-13,58,39,30,-100,-100,-100,0,0,100,0.00,40.00,0,-999,0,0.00
2013-2-14,45,38,34,-100,-100,-100,0,0,100,0.00,40.00,0,-999,0,0.00
2013-2-15,48,34,29,-100,-100,-100,0,0,100,0.00,40.00,0,-999,0,0.00
2013-2-16,38,28,23,-100,-100,-100,0,0,100,0.00,40.00,0,-999,0,0.00
2013-2-17,51,29,21,-100,-100,-100,0,0,100,0.00,40.00,0,-999,0,0.00
2013-2-18,59,35,26,-100,-100,-100,0,0,100,0.00,40.00,0,-999,0,0.00
2013-2-19,44,21,20,-100,-100,-100,0,0,100,0.00,40.00,0,-999,0,0.00
2013-2-20,31,25,19,-100,-100,-100,0,0,100,0.00,40.00,0,-999,0,0.00
2013-2-21,35,29,26,-100,-100,-100,0,0,100,0.00,40.00,0,-999,0,0.00
2013-2-22,36,27,25,-100,-100,-100,0,0,100,0.00,40.00,0,-999,0,0.00
2013-2-23,34,31,29,-100,-100,-100,0,0,100,0.00,40.00,0,-999,0,0.00
2013-2-24,53,36,29,-100,-100,-100,0,0,100,0.00,40.00,0,-999,0,0.00
2013-2-25,56,36,27,-100,-100,-100,0,0,100,0.00,40.00,0,-999,0,0.00
2013-2-26,36,22,33,-100,-100,-100,0,0,100,0.00,40.00,0,-999,0,0.00
2013-2-27,40,16,33,-100,-100,-100,0,0,100,0.00,40.00,0,-999,0,0.00
2013-2-28,42,33,34,-100,-100,-100,0,0,100,0.00,40.00,0,-999,0,0.00
2013-3-1,41,34,30,-100,-100,-100,0,0,100,0.00,40.00,0,-999,0,0.00
2013-3-2,41,31,29,-100,-100,-100,0,0,100,0.00,40.00,0,-999,0,0.00